GEFSNGP_con_cape1000_162.txt.gz
Probability
0 0 0 0 0 0 0 0 0 0 0 0 3 6 10 10 10 10 6 6 10 10 3 6 6 6 10 10 10 10 6 6 3 3 3 3 3 3 0 0 0 0 0 0
0 0 0 0 0 0 0 0 0 0 0 3 3 6 10 13 6 6 6 6 0 3 3 3 10 10 13 10 10 10 10 0 0 0 0 0 0 0 0 0 0 0 0 0
0 0 0 0 0 0 0 0 0 0 0 0 3 10 6 3 3 3 3 3 0 0 0 3 6 6 10 10 6 3 0 0 0 0 0 0 0 0 0 0 0 0 0 0
0 0 0 0 0 0 0 0 0 0 0 3 6 3 3 3 3 6 3 3 0 0 0 0 0 6 6 6 6 0 0 0 0 0 0 0 0 0 0 3 0 0 0 0
0 0 0 0 0 0 0 0 0 0 0 3 0 0 3 3 3 3 3 3 3 3 3 3 3 3 6 6 3 0 0 0 0 3 3 0 0 0 3 3 3 3 3 0
0 0 0 0 0 0 0 0 0 0 3 0 0 0 3 0 0 3 3 3 3 3 3 3 3 3 3 6 3 0 0 3 3 3 3 3 3 3 3 3 6 6 6 6
0 0 0 0 0 0 0 0 0 0 0 0 0 0 0 0 0 0 0 3 3 3 3 3 0 0 3 0 3 0 0 3 3 3 3 3 6 3 0 0 6 6 6 6
0 0 0 0 0 0 0 0 0 0 0 0 3 0 0 0 0 0 0 3 3 3 3 0 0 0 0 0 0 0 0 0 3 3 3 3 3 3 3 3 0 0 3 3
0 0 0 0 0 0 0 0 0 0 0 0 0 0 0 0 0 0 0 0 0 3 3 0 0 0 0 0 0 0 0 0 0 3 6 6 3 0 0 3 3 3 3 3
0 0 0 0 0 0 0 0 0 0 0 0 0 0 0 0 0 0 0 0 0 0 0 3 0 0 0 0 0 0 0 0 0 0 0 3 3 0 0 0 3 3 3 3
0 0 0 0 0 0 0 0 0 0 0 0 0 0 0 0 0 0 0 0 0 0 0 0 0 0 0 0 0 0 0 0 0 0 0 3 0 3 3 3 0 3 3 3
0 0 0 0 0 0 0 0 0 0 0 0 0 0 0 0 0 0 0 0 0 0 0 0 0 0 0 0 0 0 0 0 0 3 0 0 0 0 0 0 0 0 0 0
0 0 0 0 0 0 0 0 0 0 0 0 0 0 0 0 0 0 0 0 0 0 0 0 0 0 0 0 0 0 0 0 0 0 0 0 0 0 0 0 0 0 0 0
0 0 0 0 0 0 0 0 0 0 0 0 0 0 0 0 0 0 0 0 0 0 0 0 0 0 0 0 0 0 0 0 0 0 0 0 0 0 0 0 0 0 0 0
0 0 0 0 0 0 0 0 0 0 0 0 0 0 0 0 0 0 0 0 0 0 0 0 0 0 0 0 0 0 0 0 0 0 0 0 0 0 0 0 0 0 0 0
0 0 0 0 0 0 0 0 0 0 0 0 0 0 0 0 0 0 0 0 0 0 0 0 0 0 0 0 0 0 0 0 0 0 0 0 0 0 0 0 0 0 0 0
0 0 0 0 0 0 0 0 0 0 0 0 0 0 0 0 0 0 0 0 0 0 0 0 0 0 0 0 0 0 0 0 0 0 0 0 0 0 0 0 0 0 0 0
0 0 0 0 0 0 0 0 0 0 0 0 0 0 0 0 0 0 0 0 0 0 0 0 0 0 0 0 0 0 0 0 0 0 0 0 0 0 0 0 0 0 0 0
0 0 0 0 0 0 0 0 0 0 0 0 0 0 0 0 0 0 0 0 0 0 0 0 0 0 0 0 0 0 0 0 0 0 0 0 0 0 0 0 0 0 0 0
0 0 0 0 0 0 0 0 0 0 0 0 0 0 0 0 0 0 0 0 0 0 0 0 0 0 0 0 0 0 0 0 0 0 0 0 0 0 0 0 0 0 0 0
0 0 0 0 0 0 0 0 0 0 0 0 0 0 0 0 0 0 0 0 0 0 0 0 0 0 0 0 0 0 0 0 0 0 0 0 0 0 0 0 0 0 0 0
0 0 0 0 0 0 0 0 0 0 0 0 0 0 0 0 0 0 0 0 0 0 0 0 0 0 0 0 0 0 0 0 0 0 0 0 0 0 0 0 0 0 0 0
0 0 0 0 0 0 0 0 0 0 0 0 0 0 0 0 0 0 0 0 0 0 0 0 0 0 0 0 0 0 0 0 0 0 0 0 0 0 0 0 0 0 0 0
0 0 0 0 0 0 0 0 0 0 0 0 0 0 0 0 0 0 0 0 0 0 0 0 0 0 0 0 0 0 0 0 0 0 0 0 0 0 0 0 0 0 0 0
0 0 0 0 0 0 0 0 0 0 0 0 0 0 0 0 0 0 0 0 0 0 0 0 0 0 0 0 0 0 0 0 0 0 0 0 0 0 0 0 0 0 0 0
0 0 0 0 0 0 0 0 0 0 0 0 0 0 0 0 0 0 0 0 0 0 0 0 0 0 0 0 0 0 0 0 0 0 0 0 0 0 0 0 0 0 0 0
0 0 0 0 0 0 0 0 0 0 0 0 0 0 0 0 0 0 0 0 0 0 0 0 0 0 0 0 0 0 0 0 0 0 0 0 0 0 0 0 0 0 0 0

GEFSNGP_con_cape1000_168.txt.gz
Probability
0 0 0 0 0 0 0 0 0 3 3 23 48 52 55 55 42 48 52 48 52 52 45 45 45 48 48 45 42 39 39 35 35 45 45 48 45 52 58 58 45 52 48 52
0 0 0 0 0 0 0 0 0 3 13 45 48 48 48 48 39 45 48 48 52 48 45 45 45 39 42 42 35 42 35 35 35 39 45 52 58 55 48 48 55 48 48 48
0 0 0 3 3 0 0 6 3 0 23 48 42 45 58 48 52 52 48 48 52 48 48 42 42 48 48 42 32 29 29 26 26 26 42 45 42 45 48 52 61 55 52 48
0 0 0 0 3 6 10 13 13 26 35 48 48 48 45 48 55 52 48 52 55 52 52 45 42 35 35 35 35 29 23 29 26 32 32 35 42 48 52 52 48 55 48 45
0 0 0 0 6 10 13 16 19 32 42 52 45 42 35 45 45 45 42 39 42 35 32 35 32 39 39 39 35 26 23 29 29 26 32 35 35 39 45 55 52 48 48 45
0 0 0 0 13 13 10 19 26 35 39 48 42 32 32 32 32 29 26 26 32 23 23 19 32 35 32 39 39 35 23 23 32 26 26 32 35 35 45 48 48 42 39 42
0 0 3 3 10 3 6 13 32 39 52 48 39 32 29 19 16 16 16 16 16 16 19 19 26 26 29 29 29 35 26 29 29 32 29 29 32 35 42 35 32 32 32 32
0 0 0 3 6 13 23 35 35 45 42 42 35 26 19 19 16 16 16 23 23 23 26 26 26 26 23 26 29 29 23 26 26 29 23 26 32 32 32 32 29 23 32 26
0 6 6 10 13 23 23 32 32 45 42 26 16 13 13 10 10 10 10 10 10 10 16 19 19 23 26 26 29 29 26 26 19 16 23 26 32 39 35 32 19 19 23 26
0 0 0 3 10 16 26 32 35 32 26 16 13 6 3 3 0 6 10 10 10 10 13 16 16 19 19 23 23 26 29 23 19 19 23 23 26 26 23 19 13 19 19 19
0 0 10 6 13 19 26 23 23 16 10 3 0 0 3 3 3 0 10 10 10 10 10 13 16 16 16 16 23 23 23 23 23 19 19 23 13 10 13 23 13 13 23 29
3 6 13 16 13 16 13 6 10 3 0 0 0 3 3 3 0 0 6 6 10 6 10 6 10 13 13 13 13 16 19 19 19 16 19 6 6 10 3 3 3 0 0 0
10 10 16 10 6 6 6 6 0 0 0 0 0 3 3 3 3 0 6 6 6 6 6 6 3 3 3 6 10 6 10 13 13 13 13 6 6 6 3 3 0 0 0 0
3 10 6 3 0 0 0 0 0 0 0 0 0 3 3 0 0 3 3 3 3 0 3 3 3 3 3 3 6 6 6 3 10 6 3 6 6 6 6 3 3 3 0 0
3 3 0 0 0 0 0 0 0 0 0 0 0 0 0 0 0 0 3 3 3 0 3 3 3 3 3 3 3 3 3 0 3 3 3 3 3 3 3 0 0 3 0 0
0 0 0 0 0 0 0 0 0 0 0 0 0 0 0 0 0 0 0 3 3 0 0 0 0 0 0 3 3 3 0 0 0 3 3 3 3 0 0 0 0 0 0 0
0 0 0 0 0 0 0 0 0 0 0 0 0 0 0 0 0 0 0 3 0 0 0 0 0 0 0 0 0 0 0 0 0 0 0 0 0 0 0 3 0 0 0 0
0 0 0 0 0 0 0 0 0 0 0 0 0 0 0 0 0 0 0 0 0 0 0 0 0 0 0 0 0 0 0 0 0 0 0 0 0 0 0 0 0 0 0 0
0 0 0 0 0 0 0 0 0 0 0 0 0 0 0 0 0 0 0 0 0 0 0 0 0 0 0 0 0 0 0 0 0 0 0 0 0 0 0 0 0 0 0 0
0 0 0 0 0 0 0 0 0 0 0 0 0 0 0 0 0 0 0 0 0 0 0 0 0 0 0 0 0 0 0 0 0 0 0 0 0 0 0 0 0 0 0 0
0 0 0 0 0 0 0 0 0 0 0 0 0 0 0 0 0 0 0 0 0 0 0 0 0 0 0 0 0 0 0 0 0 0 0 0 0 0 0 0 0 0 0 0
0 0 0 0 0 0 0 0 0 0 0 0 0 0 0 0 0 0 0 0 0 0 0 0 0 0 0 0 0 0 0 0 0 0 0 0 0 0 0 0 0 0 0 0
0 0 0 0 0 0 0 0 0 0 0 0 0 0 0 0 0 0 0 0 0 0 0 0 0 0 0 0 0 0 0 0 0 0 0 0 0 0 0 0 0 0 0 0
0 0 0 0 0 0 0 0 0 0 0 0 0 0 0 0 0 0 0 0 0 0 0 0 0 0 0 0 0 0 0 0 0 0 0 0 0 0 0 0 0 0 0 0
0 0 0 0 0 0 0 0 0 0 0 0 0 0 0 0 0 0 0 0 0 0 0 0 0 0 0 0 0 0 0 0 0 0 0 0 0 0 0 0 0 0 0 0
0 0 0 0 0 0 0 0 0 0 0 0 0 0 0 0 0 0 0 0 0 0 0 0 0 0 0 0 0 0 0 0 0 0 0 0 0 0 0 0 0 0 0 0
0 0 0 0 0 0 0 0 0 0 0 0 0 0 0 0 0 0 0 0 0 0 0 0 0 0 0 0 0 0 0 0 0 0 0 0 0 0 0 0 0 0 0 0

GEFSNGP_con_cape1000_174.txt.gz
Probability
0 0 0 0 0 0 0 0 0 3 13 26 32 42 45 61 68 71 68 74 81 81 77 74 74 77 74 65 61 65 61 65 68 65 65 68 71 71 74 77 65 65 68 68
0 0 0 0 0 0 0 0 0 13 16 29 39 39 48 58 58 68 68 71 71 65 71 74 71 65 68 68 71 68 58 52 58 58 58 58 65 68 71 65 65 61 61 61
0 0 0 0 0 0 0 3 3 13 26 26 48 52 65 61 61 58 58 65 65 71 71 71 65 65 61 65 68 61 61 55 55 58 55 55 42 48 65 58 61 65 61 55
0 0 0 0 0 0 0 3 16 16 23 39 52 48 55 58 65 65 61 65 65 68 65 65 65 61 58 55 58 52 55 48 55 48 48 48 52 55 58 48 52 55 55 58
3 0 0 0 0 3 10 16 10 26 39 45 45 48 42 58 68 68 68 61 58 55 58 61 58 58 52 52 52 48 45 52 52 48 52 48 52 52 55 52 55 55 48 52
0 0 0 3 6 10 23 19 26 39 35 45 39 32 52 65 61 65 58 58 55 55 58 61 58 55 48 48 52 45 39 42 42 45 45 45 48 55 55 52 45 45 35 39
0 0 3 0 3 3 10 29 29 32 39 48 48 52 58 48 55 52 48 45 52 52 52 55 58 55 39 39 32 32 32 35 32 39 45 39 48 52 45 42 42 42 35 35
3 3 3 10 6 23 48 52 32 29 42 45 52 48 52 42 45 45 39 39 35 39 42 42 39 32 32 35 32 32 32 29 32 39 29 23 45 39 42 42 42 45 35 29
6 13 23 26 42 42 45 48 42 39 45 45 35 32 32 39 35 29 29 26 32 35 35 35 35 32 32 29 26 29 29 23 26 26 26 29 35 32 35 32 29 35 42 32
10 6 13 23 26 35 39 35 35 42 45 42 32 29 29 26 19 16 19 19 23 19 16 23 23 32 23 23 19 23 19 19 19 23 23 23 23 23 23 19 16 19 26 23
3 6 6 13 23 23 19 32 45 45 35 32 26 19 10 10 10 13 10 13 13 13 13 13 13 13 13 23 26 26 23 23 23 19 16 19 16 3 6 6 3 10 13 16
0 6 6 19 19 23 26 26 39 29 16 13 6 6 3 3 6 6 6 6 6 10 10 10 10 10 10 13 13 23 23 23 19 16 16 13 6 3 3 3 3 0 3 3
6 3 16 13 23 26 23 29 26 19 13 3 6 3 3 3 6 6 6 6 10 10 10 10 10 10 10 10 10 13 16 19 16 16 10 10 10 3 3 3 0 0 0 0
6 10 6 13 13 13 13 19 13 10 3 3 0 0 3 6 3 3 3 3 6 6 6 3 6 6 6 10 10 13 13 13 6 10 10 13 10 6 3 0 3 3 0 0
10 10 13 13 10 6 3 6 10 6 6 6 3 3 0 0 3 3 3 3 3 3 3 3 3 3 3 3 6 6 6 6 10 6 6 6 6 3 3 3 3 3 3 0
3 10 10 3 0 3 3 3 0 0 3 3 0 0 0 0 0 0 0 3 3 3 3 3 0 0 0 0 0 3 3 0 0 6 6 6 6 3 0 0 3 0 3 0
3 0 0 0 0 3 3 0 0 0 0 0 0 0 0 0 0 0 0 0 0 3 3 3 0 0 0 0 3 6 6 0 0 0 0 3 3 0 0 0 0 0 3 3
0 0 0 0 0 0 0 0 0 0 0 0 0 0 0 0 0 0 0 0 0 3 0 0 0 0 0 3 6 6 6 3 0 0 0 0 0 0 0 0 0 0 0 0
0 0 0 0 0 0 0 0 0 0 0 0 0 0 0 0 0 0 0 0 0 0 0 0 0 0 0 0 0 3 3 0 0 0 0 0 0 0 0 0 0 0 0 0
0 0 0 0 0 0 0 0 0 0 0 0 0 0 0 0 0 0 0 0 0 0 0 0 0 0 0 0 0 0 0 0 0 0 0 0 0 0 0 0 0 0 0 0
0 0 0 0 0 0 0 0 0 0 0 0 0 0 0 0 0 0 0 0 0 0 0 0 0 0 0 0 0 0 0 0 0 0 0 0 0 0 0 0 0 0 0 0
0 0 0 0 0 0 0 0 0 0 0 0 0 0 0 0 0 0 0 0 0 0 0 0 0 0 0 0 0 0 0 0 0 0 0 0 0 0 0 0 0 0 0 0
0 0 0 0 0 0 0 0 0 0 0 0 0 0 0 0 0 0 0 0 0 0 0 0 0 0 0 0 0 0 0 0 0 0 0 0 0 0 0 0 0 0 0 0
0 0 0 0 0 0 0 0 0 0 0 0 0 0 0 0 0 0 0 0 0 0 0 0 0 0 0 0 0 0 0 0 0 0 0 0 0 0 0 0 0 0 0 0
0 0 0 0 0 0 0 0 0 0 0 0 0 0 0 0 0 0 0 0 0 0 0 0 0 0 0 0 0 0 0 0 0 0 0 0 0 0 0 0 0 0 0 0
0 0 0 0 0 0 0 0 0 0 0 0 0 0 0 0 0 0 0 0 0 0 0 0 0 0 0 0 0 0 0 0 0 0 0 0 0 0 0 0 0 0 0 0
0 0 0 0 0 0 0 0 0 0 0 0 0 0 0 0 0 0 0 0 0 0 0 0 0 0 0 0 0 0 0 0 0 0 0 0 0 0 0 0 0 0 0 0

GEFSNGP_con_cape1000_180.txt.gz
Probability
0 0 0 0 0 0 0 0 0 3 3 6 13 19 19 26 29 35 45 42 42 35 35 29 35 35 39 35 39 35 39 35 32 26 26 16 16 13 16 10 10 10 6 6
0 0 0 0 0 0 0 0 0 3 10 13 16 16 16 29 35 42 42 42 45 35 35 29 32 32 32 32 35 35 35 32 29 16 16 13 13 10 13 10 6 6 0 0
0 0 0 0 0 0 0 0 0 10 13 16 16 16 19 23 29 35 32 35 35 35 32 32 32 32 29 32 29 32 29 26 19 16 13 13 10 6 10 6 0 0 0 0
0 0 0 0 0 0 0 3 3 13 16 23 16 16 19 16 32 26 32 29 29 35 29 26 23 29 26 23 23 16 16 19 19 19 10 6 6 6 3 3 0 0 0 3
0 0 0 0 0 0 0 10 10 16 23 26 19 23 16 19 32 29 29 32 32 35 35 29 23 16 19 16 16 13 10 10 10 10 10 6 6 6 3 0 0 3 3 3
0 0 0 0 0 3 3 16 16 16 26 19 26 26 23 26 29 35 32 35 32 29 26 23 19 16 13 13 16 10 6 3 3 3 3 3 3 3 3 3 3 3 6 3
0 0 0 3 10 6 0 19 23 19 13 13 19 19 23 26 23 26 35 39 32 32 26 16 16 16 13 13 13 10 10 6 3 3 3 3 3 6 6 6 6 3 3 3
0 0 0 0 10 6 3 6 19 19 13 16 19 23 16 19 19 23 26 23 26 29 26 19 16 10 6 6 6 6 6 6 6 6 3 6 6 6 3 3 3 3 3 0
0 0 0 0 6 3 10 6 6 6 10 13 19 19 13 16 13 13 13 16 10 13 6 6 6 6 3 0 6 6 6 6 3 3 3 3 3 3 3 3 3 3 3 0
0 0 3 3 3 6 6 3 3 3 10 10 10 16 10 10 6 6 6 6 3 3 3 3 6 6 3 3 0 3 3 3 3 3 3 3 3 3 3 3 3 3 3 0
0 0 0 3 3 3 3 3 3 3 10 10 13 10 6 6 6 3 3 3 3 3 3 0 0 0 3 3 3 0 0 0 3 3 3 0 0 0 0 0 3 0 0 0
0 0 0 0 0 3 3 3 6 6 10 10 6 6 6 6 3 0 3 0 0 0 0 0 0 0 0 0 3 3 0 0 0 3 3 0 0 0 0 0 0 0 0 0
0 0 0 0 0 0 3 10 6 6 6 3 3 3 3 0 0 0 0 0 0 0 0 0 0 0 0 0 0 0 0 0 0 0 3 0 0 0 0 0 0 0 0 0
0 0 3 3 3 3 3 0 0 0 0 0 0 0 0 0 0 0 0 0 0 0 0 0 0 0 0 0 0 0 0 0 0 0 0 0 0 0 0 0 0 0 0 0
3 3 3 3 0 0 0 0 0 0 0 0 0 0 0 0 0 0 0 0 0 0 0 0 0 0 0 0 0 0 0 0 0 0 0 0 0 0 0 0 0 0 0 0
0 0 0 0 0 0 0 0 0 0 0 0 0 0 0 0 0 0 0 0 0 0 0 0 0 0 0 0 0 0 0 0 0 0 0 0 0 0 0 0 0 0 0 0
0 0 0 0 0 0 0 0 0 0 0 0 0 0 0 0 0 0 0 0 0 0 0 0 0 0 0 0 0 0 0 0 0 0 0 0 0 0 0 0 0 0 0 0
0 0 0 0 0 0 0 0 0 0 0 0 0 0 0 0 0 0 0 0 0 0 0 0 0 0 0 0 0 0 0 0 0 0 0 0 0 0 0 0 0 0 0 0
0 0 0 0 0 0 0 0 0 0 0 0 0 0 0 0 0 0 0 0 0 0 0 0 0 0 0 0 0 0 0 0 0 0 0 0 0 0 0 0 0 0 0 0
0 0 0 0 0 0 0 0 0 0 0 0 0 0 0 0 0 0 0 0 0 0 0 0 0 0 0 0 0 0 0 0 0 0 0 0 0 0 0 0 0 0 0 0
0 0 0 0 0 0 0 0 0 0 0 0 0 0 0 0 0 0 0 0 0 0 0 0 0 0 0 0 0 0 0 0 0 0 0 0 0 0 0 0 0 0 0 0
0 0 0 0 0 0 0 0 0 0 0 0 0 0 0 0 0 0 0 0 0 0 0 0 0 0 0 0 0 0 0 0 0 0 0 0 0 0 0 0 0 0 0 0
0 0 0 0 0 0 0 0 0 0 0 0 0 0 0 0 0 0 0 0 0 0 0 0 0 0 0 0 0 0 0 0 0 0 0 0 0 0 0 0 0 0 0 0
0 0 0 0 0 0 0 0 0 0 0 0 0 0 0 0 0 0 0 0 0 0 0 0 0 0 0 0 0 0 0 0 0 0 0 0 0 0 0 0 0 0 0 0
0 0 0 0 0 0 0 0 0 0 0 0 0 0 0 0 0 0 0 0 0 0 0 0 0 0 0 0 0 0 0 0 0 0 0 0 0 0 0 0 0 0 0 0
0 0 0 0 0 0 0 0 0 0 0 0 0 0 0 0 0 0 0 0 0 0 0 0 0 0 0 0 0 0 0 0 0 0 0 0 0 0 0 0 0 0 0 0
0 0 0 0 0 0 0 0 0 0 0 0 0 0 0 0 0 0 0 0 0 0 0 0 0 0 0 0 0 0 0 0 0 0 0 0 0 0 0 0 0 0 0 0